| time (UTC) | temp F | wind direction | speed MPH | gust MPH | rain 1hr in | rain 24hr in | rain mn in | humidity % | barometer mb |
| 20260507164014 | 59 | 44 | 1.0 | 3.0 | 0.00 | 1.57 | 0.28 | 83 | 1013.4 |
| 20260507163514 | 59 | 67 | 0.0 | 3.0 | 0.00 | 1.57 | 0.28 | 83 | 1013.4 |
| 20260507163016 | 59 | 336 | 0.0 | 2.0 | 0.00 | 1.57 | 0.28 | 85 | 1013.4 |
| 20260507162511 | 59 | 332 | 1.0 | 2.0 | 0.00 | 1.57 | 0.28 | 87 | 1013.3 |
| 20260507162010 | 58 | 331 | 0.0 | 2.0 | 0.00 | 1.57 | 0.28 | 86 | 1013.3 |
| 20260507161516 | 58 | 345 | 0.0 | 2.0 | 0.00 | 1.57 | 0.28 | 88 | 1013.4 |
| 20260507161013 | 58 | 345 | 0.0 | 2.0 | 0.00 | 1.57 | 0.28 | 89 | 1013.4 |
| 20260507160509 | 57 | 317 | 0.0 | 2.0 | 0.00 | 1.57 | 0.28 | 93 | 1013.5 |
| 20260507160011 | 56 | 57 | 0.0 | 2.0 | 0.00 | 1.57 | 0.28 | 95 | 1013.4 |
| 20260507155507 | 56 | 178 | 0.0 | 3.0 | 0.00 | 1.58 | 0.28 | 96 | 1013.4 |
| 20260507155007 | 56 | 336 | 0.0 | 2.0 | 0.00 | 1.58 | 0.28 | 96 | 1013.4 |
| 20260507154508 | 56 | 344 | 0.0 | 1.0 | 0.00 | 1.58 | 0.28 | 96 | 1013.3 |
| 20260507154009 | 56 | 344 | 0.0 | 1.0 | 0.00 | 1.58 | 0.28 | 96 | 1013.3 |
| 20260507153505 | 56 | 344 | 0.0 | 1.0 | 0.00 | 1.58 | 0.28 | 96 | 1013.3 |
| 20260507153005 | 56 | 344 | 0.0 | 1.0 | 0.00 | 1.58 | 0.28 | 96 | 1013.4 |
| 20260507152506 | 55 | 344 | 0.0 | 2.0 | 0.00 | 1.58 | 0.28 | 96 | 1013.3 |
| 20260507152005 | 55 | 344 | 0.0 | 3.0 | 0.00 | 1.58 | 0.28 | 96 | 1013.2 |
| 20260507151507 | 55 | 344 | 0.0 | 3.0 | 0.00 | 1.58 | 0.28 | 96 | 1013.0 |
| 20260507151005 | 55 | 360 | 0.0 | 2.0 | 0.00 | 1.58 | 0.28 | 96 | 1013.1 |
| 20260507150505 | 55 | 360 | 0.0 | 2.0 | 0.00 | 1.58 | 0.28 | 96 | 1013.0 |
| 20260507150004 | 55 | 309 | 0.0 | 2.0 | 0.00 | 1.58 | 0.28 | 96 | 1013.2 |
| 20260507145507 | 55 | 295 | 0.0 | 2.0 | 0.00 | 2.02 | 0.28 | 96 | 1013.1 |
| 20260507145006 | 55 | 252 | 0.0 | 2.0 | 0.00 | 2.02 | 0.28 | 96 | 1013.1 |
| 20260507144503 | 55 | 252 | 0.0 | 2.0 | 0.00 | 2.02 | 0.28 | 96 | 1013.1 |
| 20260507144003 | 55 | 10 | 0.0 | 2.0 | 0.00 | 2.02 | 0.28 | 96 | 1013.1 |
| 20260507143502 | 55 | 19 | 0.0 | 2.0 | 0.00 | 2.02 | 0.28 | 96 | 1013.2 |
| 20260507143002 | 55 | 53 | 0.0 | 2.0 | 0.00 | 2.02 | 0.28 | 96 | 1013.0 |
| 20260507142601 | 55 | 71 | 0.0 | 1.0 | 0.00 | 2.02 | 0.28 | 97 | 1013.0 |
| 20260507142101 | 55 | 93 | 0.0 | 2.0 | 0.00 | 2.02 | 0.28 | 96 | 1012.9 |
| 20260507141633 | 55 | 93 | 0.0 | 2.0 | 0.00 | 2.02 | 0.28 | 96 | 1012.9 |
| 20260507141100 | 55 | 20 | 0.0 | 2.0 | 0.00 | 2.02 | 0.28 | 96 | 1012.8 |
| 20260507140600 | 55 | 322 | 0.0 | 2.0 | 0.00 | 2.02 | 0.28 | 97 | 1012.7 |
| 20260507140113 | 55 | 322 | 0.0 | 2.0 | 0.00 | 2.02 | 0.28 | 96 | 1012.8 |
| 20260507135559 | 55 | 322 | 0.0 | 2.0 | 0.00 | 2.33 | 0.28 | 96 | 1012.8 |
| 20260507135056 | 55 | 310 | 1.0 | 2.0 | 0.00 | 2.33 | 0.28 | 96 | 1012.7 |
| 20260507134600 | 55 | 346 | 1.0 | 3.0 | 0.00 | 2.33 | 0.28 | 96 | 1012.5 |
| 20260507134055 | 56 | 323 | 1.0 | 3.0 | 0.00 | 2.33 | 0.28 | 97 | 1012.7 |
| 20260507133555 | 56 | 249 | 0.0 | 2.0 | 0.00 | 2.33 | 0.28 | 97 | 1012.6 |
| 20260507133100 | 56 | 249 | 0.0 | 2.0 | 0.00 | 2.33 | 0.28 | 97 | 1012.5 |
| 20260507132554 | 56 | 240 | 0.0 | 1.0 | 0.00 | 2.33 | 0.28 | 97 | 1012.4 |
| 20260507132054 | 56 | 174 | 0.0 | 1.0 | 0.00 | 2.33 | 0.28 | 97 | 1012.5 |
| 20260507131616 | 56 | 173 | 0.0 | 1.0 | 0.00 | 2.33 | 0.28 | 97 | 1012.4 |
| 20260507131053 | 56 | 173 | 0.0 | 3.0 | 0.00 | 2.33 | 0.28 | 96 | 1012.2 |
| 20260507130652 | 56 | 173 | 1.0 | 3.0 | 0.00 | 2.33 | 0.28 | 97 | 1012.0 |
| 20260507130052 | 56 | 5 | 0.0 | 2.0 | 0.00 | 2.33 | 0.28 | 97 | 1012.1 |
| 20260507125551 | 56 | 5 | 1.0 | 2.0 | 0.00 | 2.78 | 0.28 | 97 | 1012.1 |
| 20260507125050 | 56 | 5 | 0.0 | 2.0 | 0.00 | 2.78 | 0.28 | 97 | 1012.1 |
| 20260507124555 | 56 | 5 | 0.0 | 1.0 | 0.00 | 2.78 | 0.28 | 97 | 1012.1 |
| 20260507124049 | 56 | 5 | 0.0 | 2.0 | 0.00 | 2.78 | 0.28 | 97 | 1011.9 |
| 20260507123549 | 56 | 5 | 0.0 | 1.0 | 0.00 | 2.78 | 0.28 | 97 | 1012.0 |
| 20260507123050 | 56 | 5 | 0.0 | 2.0 | 0.00 | 2.78 | 0.28 | 97 | 1011.8 |
| 20260507122548 | 56 | 5 | 0.0 | 2.0 | 0.00 | 2.78 | 0.28 | 97 | 1011.8 |
| 20260507122052 | 56 | 5 | 0.0 | 1.0 | 0.00 | 2.78 | 0.28 | 96 | 1011.8 |
| 20260507121548 | 56 | 5 | 0.0 | 2.0 | 0.00 | 2.78 | 0.28 | 97 | 1011.9 |
| 20260507121049 | 56 | 5 | 0.0 | 2.0 | 0.00 | 2.78 | 0.28 | 97 | 1012.0 |
| 20260507120547 | 56 | 5 | 0.0 | 2.0 | 0.00 | 2.78 | 0.28 | 96 | 1011.9 |
| 20260507120048 | 56 | 5 | 0.0 | 2.0 | 0.00 | 2.78 | 0.28 | 96 | 1011.8 |
| 20260507115547 | 56 | 5 | 0.0 | 1.0 | 0.00 | 2.79 | 0.28 | 96 | 1011.9 |
| 20260507115046 | 56 | 5 | 0.0 | 1.0 | 0.00 | 2.79 | 0.28 | 96 | 1011.8 |
| 20260507114546 | 56 | 5 | 0.0 | 2.0 | 0.00 | 2.79 | 0.28 | 96 | 1011.8 |
| 20260507114051 | 56 | 5 | 0.0 | 2.0 | 0.00 | 2.79 | 0.28 | 96 | 1011.8 |
| 20260507113546 | 56 | 5 | 0.0 | 1.0 | 0.00 | 2.79 | 0.28 | 96 | 1011.7 |
| 20260507113106 | 56 | 5 | 0.0 | 2.0 | 0.00 | 2.79 | 0.28 | 96 | 1011.4 |
| 20260507112548 | 56 | 5 | 0.0 | 2.0 | 0.00 | 2.79 | 0.28 | 96 | 1011.1 |
| 20260507112044 | 56 | 5 | 0.0 | 2.0 | 0.00 | 2.79 | 0.28 | 96 | 1011.2 |
| 20260507111544 | 56 | 5 | 0.0 | 1.0 | 0.00 | 2.79 | 0.28 | 96 | 1011.2 |
| 20260507111043 | 56 | 5 | 0.0 | 1.0 | 0.00 | 2.79 | 0.28 | 96 | 1011.3 |
| 20260507110544 | 56 | 5 | 0.0 | 2.0 | 0.00 | 2.79 | 0.28 | 96 | 1011.2 |
| 20260507110043 | 56 | 5 | 0.0 | 2.0 | 0.00 | 2.79 | 0.28 | 96 | 1010.9 |
| 20260507105541 | 57 | 5 | 0.0 | 1.0 | 0.00 | 2.79 | 0.28 | 96 | 1010.9 |
| 20260507105042 | 57 | 5 | 0.0 | 1.0 | 0.01 | 2.79 | 0.28 | 96 | 1010.6 |
| 20260507104552 | 57 | 5 | 0.0 | 1.0 | 0.01 | 2.79 | 0.28 | 96 | 1010.6 |
| 20260507104042 | 57 | 17 | 0.0 | 2.0 | 0.01 | 2.79 | 0.28 | 96 | 1010.4 |
| 20260507103542 | 57 | 17 | 0.0 | 2.0 | 0.03 | 2.79 | 0.28 | 96 | 1010.8 |
| 20260507103040 | 57 | 17 | 0.0 | 2.0 | 0.06 | 2.79 | 0.28 | 96 | 1010.5 |
| 20260507102539 | 57 | 15 | 0.0 | 2.0 | 0.08 | 2.79 | 0.28 | 96 | 1010.4 |
| 20260507102039 | 57 | 15 | 0.0 | 2.0 | 0.08 | 2.79 | 0.28 | 96 | 1010.6 |
| 20260507101539 | 57 | 32 | 0.0 | 2.0 | 0.09 | 2.79 | 0.28 | 96 | 1010.8 |
| 20260507101038 | 57 | 38 | 0.0 | 1.0 | 0.09 | 2.79 | 0.28 | 96 | 1010.7 |
| 20260507100538 | 57 | 38 | 0.0 | 1.0 | 0.09 | 2.79 | 0.28 | 97 | 1010.8 |
| 20260507100051 | 58 | 38 | 0.0 | 1.0 | 0.10 | 2.79 | 0.28 | 96 | 1010.7 |
| 20260507095540 | 58 | 38 | 0.0 | 0.0 | 0.11 | 2.79 | 0.28 | 96 | 1010.6 |
| 20260507095040 | 58 | 38 | 0.0 | 1.0 | 0.11 | 2.78 | 0.27 | 96 | 1010.9 |
| 20260507094540 | 58 | 38 | 0.0 | 1.0 | 0.12 | 2.78 | 0.27 | 96 | 1010.7 |
| 20260507094039 | 58 | 38 | 0.0 | 2.0 | 0.13 | 2.78 | 0.27 | 96 | 1010.7 |
| 20260507093538 | 58 | 38 | 0.0 | 2.0 | 0.12 | 2.76 | 0.25 | 96 | 1010.7 |
| 20260507093038 | 58 | 37 | 0.0 | 2.0 | 0.10 | 2.73 | 0.22 | 96 | 1011.0 |
| 20260507092536 | 58 | 37 | 0.0 | 1.0 | 0.09 | 2.71 | 0.20 | 96 | 1011.0 |
| 20260507092037 | 58 | 37 | 0.0 | 1.0 | 0.09 | 2.71 | 0.20 | 96 | 1011.3 |
| 20260507091540 | 58 | 37 | 0.0 | 1.0 | 0.08 | 2.70 | 0.19 | 96 | 1011.2 |
| 20260507091038 | 58 | 37 | 0.0 | 1.0 | 0.08 | 2.70 | 0.19 | 96 | 1010.8 |
| 20260507090533 | 58 | 37 | 0.0 | 2.0 | 0.08 | 2.70 | 0.19 | 96 | 1010.4 |
| 20260507090034 | 58 | 49 | 0.0 | 2.0 | 0.07 | 2.69 | 0.18 | 96 | 1010.1 |
| 20260507085533 | 58 | 50 | 0.0 | 2.0 | 0.06 | 2.68 | 0.17 | 96 | 1010.0 |
| 20260507085032 | 59 | 50 | 1.0 | 2.0 | 0.05 | 2.67 | 0.16 | 96 | 1010.2 |
| 20260507084546 | 59 | 12 | 0.0 | 0.0 | 0.04 | 2.66 | 0.15 | 96 | 1010.6 |
| 20260507084031 | 59 | 12 | 0.0 | 0.0 | 0.03 | 2.65 | 0.14 | 96 | 1010.8 |
| 20260507083531 | 59 | 12 | 0.0 | 0.0 | 0.02 | 2.64 | 0.13 | 96 | 1011.0 |
| 20260507083031 | 59 | 12 | 0.0 | 0.0 | 0.00 | 2.62 | 0.11 | 96 | 1010.8 |
| 20260507082530 | 59 | 12 | 0.0 | 0.0 | 0.00 | 2.62 | 0.11 | 96 | 1010.7 |
| 20260507082031 | 59 | 12 | 0.0 | 2.0 | 0.00 | 2.62 | 0.11 | 96 | 1010.9 |
| 20260507081529 | 59 | 12 | 0.0 | 2.0 | 0.00 | 2.62 | 0.11 | 96 | 1010.5 |
| 20260507081028 | 60 | 36 | 0.0 | 2.0 | 0.00 | 2.62 | 0.11 | 96 | 1010.8 |
| 20260507080528 | 60 | 69 | 0.0 | 2.0 | 0.00 | 2.62 | 0.11 | 96 | 1010.8 |
| 20260507080027 | 60 | 350 | 0.0 | 2.0 | 0.00 | 2.62 | 0.11 | 96 | 1010.7 |
| 20260507075526 | 60 | 355 | 0.0 | 2.0 | 0.00 | 2.62 | 0.11 | 96 | 1010.8 |
| 20260507075025 | 60 | 11 | 0.0 | 2.0 | 0.00 | 2.62 | 0.11 | 96 | 1010.4 |
| 20260507074525 | 60 | 11 | 1.0 | 2.0 | 0.00 | 2.62 | 0.11 | 96 | 1010.5 |
| 20260507074024 | 60 | 11 | 0.0 | 2.0 | 0.00 | 2.62 | 0.11 | 96 | 1010.5 |
| 20260507073524 | 61 | 11 | 1.0 | 2.0 | 0.00 | 2.62 | 0.11 | 96 | 1010.6 |
| 20260507073025 | 61 | 11 | 0.0 | 2.0 | 0.00 | 2.62 | 0.11 | 96 | 1010.5 |
| 20260507072522 | 61 | 28 | 0.0 | 2.0 | 0.00 | 2.62 | 0.11 | 96 | 1010.4 |
| 20260507072021 | 61 | 28 | 0.0 | 2.0 | 0.00 | 2.62 | 0.11 | 96 | 1010.0 |
| 20260507071522 | 62 | 28 | 0.0 | 2.0 | 0.00 | 2.62 | 0.11 | 97 | 1009.9 |
| 20260507071020 | 62 | 28 | 0.0 | 2.0 | 0.00 | 2.62 | 0.11 | 96 | 1010.0 |
| 20260507070520 | 62 | 28 | 0.0 | 2.0 | 0.00 | 2.62 | 0.11 | 97 | 1010.3 |
| 20260507070022 | 62 | 133 | 1.0 | 2.0 | 0.00 | 2.62 | 0.11 | 96 | 1010.3 |
| 20260507065516 | 63 | 133 | 0.0 | 2.0 | 0.00 | 2.62 | 0.11 | 96 | 1010.4 |
| 20260507065016 | 63 | 133 | 0.0 | 1.0 | 0.00 | 2.62 | 0.11 | 97 | 1010.4 |
| 20260507064516 | 63 | 133 | 0.0 | 1.0 | 0.00 | 2.62 | 0.11 | 97 | 1010.7 |
| 20260507064015 | 63 | 133 | 0.0 | 0.0 | 0.00 | 2.62 | 0.11 | 97 | 1010.8 |
| 20260507063518 | 63 | 109 | 0.0 | 0.0 | 0.00 | 2.62 | 0.11 | 97 | 1010.8 |
| 20260507063016 | 63 | 109 | 0.0 | 0.0 | 0.00 | 2.62 | 0.11 | 97 | 1010.9 |
| 20260507062515 | 63 | 109 | 0.0 | 0.0 | 0.00 | 2.62 | 0.11 | 97 | 1010.9 |
| 20260507062014 | 63 | 98 | 0.0 | 0.0 | 0.00 | 2.62 | 0.11 | 97 | 1010.7 |
| 20260507061515 | 63 | 98 | 0.0 | 0.0 | 0.00 | 2.62 | 0.11 | 97 | 1010.9 |
| 20260507061016 | 63 | 98 | 0.0 | 0.0 | 0.00 | 2.62 | 0.11 | 97 | 1011.0 |
| 20260507060513 | 63 | 98 | 0.0 | 0.0 | 0.00 | 2.62 | 0.11 | 97 | 1011.2 |
| 20260507060014 | 63 | 98 | 0.0 | 0.0 | 0.00 | 2.62 | 0.11 | 97 | 1011.2 |
| 20260507055513 | 63 | 98 | 0.0 | 0.0 | 0.00 | 2.62 | 0.11 | 97 | 1011.0 |
| 20260507055012 | 63 | 98 | 0.0 | 0.0 | 0.00 | 2.62 | 0.11 | 97 | 1010.9 |
| 20260507054512 | 63 | 98 | 0.0 | 0.0 | 0.00 | 2.62 | 0.11 | 97 | 1010.9 |
| 20260507054012 | 63 | 98 | 0.0 | 0.0 | 0.00 | 2.62 | 0.11 | 97 | 1010.6 |
| 20260507053517 | 63 | 98 | 0.0 | 1.0 | 0.01 | 2.62 | 0.11 | 97 | 1010.5 |
| 20260507053014 | 63 | 98 | 0.0 | 0.0 | 0.02 | 2.62 | 0.11 | 97 | 1010.9 |
| 20260507052512 | 63 | 98 | 0.0 | 1.0 | 0.03 | 2.62 | 0.11 | 97 | 1010.6 |
| 20260507052012 | 63 | 98 | 0.0 | 1.0 | 0.08 | 2.62 | 0.11 | 97 | 1010.5 |
| 20260507051512 | 63 | 98 | 0.0 | 1.0 | 0.09 | 2.62 | 0.11 | 97 | 1010.4 |
| 20260507051016 | 63 | 98 | 0.0 | 1.0 | 0.11 | 2.62 | 0.11 | 97 | 1010.6 |
| 20260507050511 | 63 | 98 | 0.0 | 1.0 | 0.11 | 2.62 | 0.11 | 97 | 1010.3 |
| 20260507050034 | 63 | 98 | 0.0 | 1.0 | 0.11 | 2.62 | 0.11 | 97 | 1010.1 |
| 20260507045511 | 63 | 98 | 0.0 | 1.0 | 0.11 | 2.62 | 0.11 | 97 | 1010.2 |
| 20260507045009 | 63 | 98 | 0.0 | 1.0 | 0.11 | 2.62 | 0.11 | 97 | 1010.3 |
| 20260507044511 | 63 | 98 | 0.0 | 0.0 | 0.11 | 2.62 | 0.11 | 97 | 1010.8 |
| 20260507044007 | 64 | 98 | 0.0 | 2.0 | 0.11 | 2.62 | 0.11 | 97 | 1010.9 |
| 20260507043607 | 64 | 98 | 0.0 | 2.0 | 0.10 | 2.61 | 0.10 | 97 | 1010.9 |
| 20260507043006 | 63 | 106 | 0.0 | 2.0 | 0.09 | 2.60 | 0.09 | 97 | 1010.9 |
| 20260507042508 | 64 | 106 | 0.0 | 2.0 | 0.08 | 2.59 | 0.08 | 97 | 1011.3 |
| 20260507042005 | 64 | 111 | 0.0 | 1.0 | 0.03 | 2.54 | 0.03 | 97 | 1011.4 |
| 20260507041505 | 64 | 100 | 0.0 | 1.0 | 0.03 | 2.52 | 0.02 | 97 | 1011.5 |
| 20260507041004 | 64 | 99 | 0.0 | 1.0 | 0.01 | 2.50 | 0.00 | 97 | 1011.0 |
| 20260507040504 | 64 | 99 | 0.0 | 0.0 | 0.01 | 2.50 | 0.00 | 96 | 1011.4 |
| 20260507040002 | 64 | 99 | 0.0 | 0.0 | 0.03 | 2.50 | 2.50 | 96 | 1011.2 |
| 20260507035502 | 64 | 99 | 0.0 | 0.0 | 0.09 | 2.50 | 2.50 | 96 | 1011.2 |
| 20260507035002 | 64 | 99 | 0.0 | 0.0 | 0.09 | 2.50 | 2.50 | 96 | 1011.1 |
| 20260507034502 | 64 | 99 | 0.0 | 0.0 | 0.09 | 2.50 | 2.50 | 96 | 1011.5 |
| 20260507034001 | 64 | 99 | 0.0 | 0.0 | 0.09 | 2.50 | 2.50 | 96 | 1011.3 |
| 20260507033501 | 64 | 99 | 0.0 | 0.0 | 0.09 | 2.50 | 2.50 | 96 | 1011.4 |
| 20260507033001 | 64 | 99 | 0.0 | 1.0 | 0.10 | 2.50 | 2.50 | 96 | 1011.3 |
| 20260507032501 | 64 | 99 | 0.0 | 0.0 | 0.10 | 2.50 | 2.50 | 96 | 1011.3 |
| 20260507032001 | 64 | 99 | 0.0 | 1.0 | 0.11 | 2.50 | 2.50 | 96 | 1011.3 |
| 20260507031600 | 64 | 99 | 0.0 | 1.0 | 0.10 | 2.50 | 2.50 | 97 | 1011.5 |
| 20260507031100 | 64 | 99 | 0.0 | 1.0 | 0.10 | 2.50 | 2.50 | 97 | 1011.5 |
| 20260507030600 | 64 | 99 | 0.0 | 1.0 | 0.10 | 2.50 | 2.50 | 97 | 1011.6 |
| 20260507025603 | 64 | 118 | 0.0 | 2.0 | 0.02 | 2.42 | 2.42 | 97 | 1011.7 |
| 20260507025100 | 64 | 119 | 0.0 | 1.0 | 0.02 | 2.42 | 2.42 | 97 | 1011.6 |
| 20260507024559 | 64 | 119 | 0.0 | 1.0 | 0.02 | 2.42 | 2.42 | 96 | 1011.3 |
| 20260507024107 | 64 | 119 | 0.0 | 0.0 | 0.02 | 2.42 | 2.42 | 97 | 1011.5 |
| 20260507023602 | 64 | 119 | 0.0 | 0.0 | 0.02 | 2.42 | 2.42 | 96 | 1011.4 |
| 20260507023058 | 64 | 119 | 0.0 | 0.0 | 0.02 | 2.42 | 2.42 | 96 | 1011.3 |
| 20260507022558 | 64 | 119 | 0.0 | 1.0 | 0.01 | 2.41 | 2.41 | 96 | 1011.1 |
| 20260507022058 | 64 | 119 | 0.0 | 1.0 | 0.00 | 2.40 | 2.40 | 96 | 1011.2 |
| 20260507021606 | 64 | 119 | 0.0 | 0.0 | 0.00 | 2.40 | 2.40 | 96 | 1011.5 |
| 20260507021058 | 64 | 119 | 0.0 | 0.0 | 0.00 | 2.40 | 2.40 | 96 | 1011.6 |
| 20260507020557 | 64 | 119 | 0.0 | 1.0 | 0.00 | 2.40 | 2.40 | 96 | 1011.4 |
| 20260507020058 | 64 | 119 | 0.0 | 2.0 | 0.00 | 2.40 | 2.40 | 96 | 1011.2 |
| 20260507015557 | 64 | 119 | 1.0 | 2.0 | 0.00 | 2.40 | 2.40 | 96 | 1011.2 |
| 20260507015057 | 64 | 134 | 0.0 | 2.0 | 0.00 | 2.40 | 2.40 | 96 | 1011.4 |
| 20260507014559 | 64 | 134 | 0.0 | 1.0 | 0.00 | 2.40 | 2.40 | 96 | 1011.6 |
| 20260507014057 | 64 | 134 | 0.0 | 0.0 | 0.00 | 2.40 | 2.40 | 96 | 1011.8 |
| 20260507013556 | 64 | 134 | 0.0 | 0.0 | 0.00 | 2.40 | 2.40 | 96 | 1011.8 |
| 20260507013057 | 64 | 134 | 0.0 | 0.0 | 0.00 | 2.40 | 2.40 | 96 | 1011.9 |
| 20260507012601 | 64 | 134 | 0.0 | 0.0 | 0.00 | 2.40 | 2.40 | 96 | 1011.9 |
| 20260507012056 | 64 | 134 | 0.0 | 0.0 | 0.00 | 2.40 | 2.40 | 96 | 1011.7 |
| 20260507011559 | 64 | 134 | 0.0 | 0.0 | 0.01 | 2.40 | 2.40 | 96 | 1011.4 |
| 20260507011056 | 64 | 134 | 0.0 | 0.0 | 0.06 | 2.40 | 2.40 | 96 | 1011.5 |
| 20260507010557 | 64 | 134 | 0.0 | 0.0 | 0.07 | 2.40 | 2.40 | 96 | 1011.3 |
| 20260507010056 | 64 | 134 | 0.0 | 0.0 | 0.07 | 2.40 | 2.40 | 96 | 1011.2 |
| 20260507005555 | 64 | 134 | 0.0 | 0.0 | 0.07 | 2.40 | 2.40 | 96 | 1011.1 |
| 20260507005054 | 64 | 134 | 0.0 | 0.0 | 0.07 | 2.40 | 2.40 | 96 | 1011.1 |
| 20260507004555 | 64 | 134 | 0.0 | 0.0 | 0.07 | 2.40 | 2.40 | 96 | 1011.4 |
| 20260507004057 | 64 | 134 | 0.0 | 0.0 | 0.07 | 2.40 | 2.40 | 96 | 1011.4 |
| 20260507003555 | 64 | 134 | 0.0 | 1.0 | 0.08 | 2.40 | 2.40 | 96 | 1011.3 |
| 20260507003055 | 64 | 134 | 0.0 | 1.0 | 0.09 | 2.40 | 2.40 | 96 | 1011.4 |
| 20260507002555 | 64 | 134 | 0.0 | 3.0 | 0.10 | 2.40 | 2.40 | 96 | 1011.1 |
| 20260507002054 | 64 | 134 | 0.0 | 3.0 | 0.12 | 2.40 | 2.40 | 96 | 1010.0 |
| 20260507001600 | 64 | 110 | 1.0 | 6.0 | 0.15 | 2.39 | 2.39 | 96 | 1009.9 |
| 20260507001054 | 64 | 100 | 2.0 | 6.0 | 0.10 | 2.34 | 2.34 | 96 | 1011.8 |
| 20260507000555 | 64 | 76 | 0.0 | 0.0 | 0.10 | 2.33 | 2.33 | 96 | 1012.5 |
| 20260507000055 | 64 | 76 | 0.0 | 0.0 | 0.10 | 2.33 | 2.33 | 96 | 1012.1 |
| 20260506235557 | 64 | 76 | 0.0 | 1.0 | 0.13 | 2.33 | 2.33 | 96 | 1011.7 |
| 20260506235053 | 64 | 76 | 0.0 | 2.0 | 0.13 | 2.33 | 2.33 | 96 | 1011.4 |
| 20260506234616 | 64 | 22 | 0.0 | 2.0 | 0.14 | 2.33 | 2.33 | 96 | 1011.2 |
| 20260506234053 | 64 | 22 | 0.0 | 1.0 | 0.16 | 2.33 | 2.33 | 96 | 1011.5 |
| 20260506233553 | 64 | 22 | 0.0 | 2.0 | 0.21 | 2.31 | 2.31 | 96 | 1011.3 |
| 20260506233053 | 64 | 22 | 0.0 | 2.0 | 0.24 | 2.31 | 2.31 | 96 | 1011.6 |
| 20260506232556 | 64 | 22 | 0.0 | 1.0 | 0.27 | 2.29 | 2.29 | 96 | 1012.0 |
| 20260506232052 | 64 | 21 | 0.0 | 2.0 | 0.30 | 2.27 | 2.27 | 96 | 1011.8 |
| 20260506231555 | 64 | 332 | 0.0 | 2.0 | 0.28 | 2.24 | 2.24 | 96 | 1011.8 |
| 20260506231056 | 65 | 331 | 0.0 | 2.0 | 0.36 | 2.24 | 2.24 | 96 | 1011.2 |
| 20260506230555 | 65 | 64 | 0.0 | 2.0 | 0.43 | 2.23 | 2.23 | 96 | 1010.6 |
| 20260506230056 | 65 | 64 | 0.0 | 2.0 | 0.43 | 2.23 | 2.23 | 96 | 1010.8 |
| 20260506225555 | 65 | 77 | 1.0 | 2.0 | 0.44 | 2.20 | 2.20 | 96 | 1010.7 |
| 20260506225052 | 65 | 86 | 0.0 | 3.0 | 0.45 | 2.20 | 2.20 | 96 | 1011.1 |
| 20260506224552 | 65 | 103 | 1.0 | 3.0 | 0.45 | 2.19 | 2.19 | 96 | 1010.6 |
| 20260506224051 | 65 | 97 | 1.0 | 3.0 | 0.42 | 2.16 | 2.16 | 96 | 1010.7 |
| 20260506223555 | 65 | 105 | 0.0 | 1.0 | 0.38 | 2.11 | 2.11 | 96 | 1011.0 |
| 20260506223058 | 65 | 105 | 0.0 | 1.0 | 0.34 | 2.06 | 2.06 | 96 | 1010.8 |
| 20260506222551 | 65 | 99 | 0.0 | 0.0 | 0.30 | 2.02 | 2.02 | 96 | 1010.6 |
| 20260506222051 | 65 | 99 | 0.0 | 1.0 | 0.27 | 1.98 | 1.98 | 96 | 1011.1 |
| 20260506221554 | 66 | 99 | 0.0 | 1.0 | 0.28 | 1.95 | 1.95 | 96 | 1010.8 |
| 20260506221052 | 66 | 86 | 0.0 | 1.0 | 0.22 | 1.88 | 1.88 | 96 | 1010.7 |
| 20260506220550 | 66 | 76 | 0.0 | 2.0 | 0.18 | 1.80 | 1.80 | 96 | 1010.7 |
| 20260506220051 | 66 | 76 | 1.0 | 2.0 | 0.19 | 1.80 | 1.80 | 96 | 1010.4 |
| 20260506215549 | 66 | 76 | 0.0 | 0.0 | 0.15 | 1.76 | 1.76 | 96 | 1010.6 |
| 20260506215051 | 66 | 76 | 0.0 | 0.0 | 0.14 | 1.75 | 1.75 | 96 | 1010.4 |
| 20260506214550 | 66 | 76 | 0.0 | 1.0 | 0.13 | 1.74 | 1.74 | 96 | 1010.2 |
| 20260506214050 | 66 | 76 | 0.0 | 2.0 | 0.13 | 1.74 | 1.74 | 96 | 1010.2 |
| 20260506213651 | 66 | 76 | 0.0 | 2.0 | 0.12 | 1.73 | 1.73 | 96 | 1009.8 |
| 20260506213049 | 66 | 259 | 0.0 | 1.0 | 0.13 | 1.73 | 1.73 | 96 | 1010.1 |
| 20260506212549 | 66 | 271 | 0.0 | 1.0 | 0.20 | 1.73 | 1.73 | 96 | 1010.2 |
| 20260506212049 | 66 | 271 | 0.0 | 1.0 | 0.19 | 1.71 | 1.71 | 96 | 1010.4 |
| 20260506211549 | 66 | 271 | 0.0 | 1.0 | 0.17 | 1.67 | 1.67 | 96 | 1011.1 |
| 20260506211049 | 66 | 271 | 0.0 | 2.0 | 0.16 | 1.66 | 1.66 | 96 | 1010.9 |
| 20260506210551 | 66 | 271 | 0.0 | 2.0 | 0.12 | 1.62 | 1.62 | 96 | 1011.0 |
| 20260506210049 | 66 | 283 | 0.0 | 2.0 | 0.12 | 1.61 | 1.61 | 96 | 1011.0 |
| 20260506205547 | 66 | 307 | 0.0 | 1.0 | 0.12 | 1.61 | 1.61 | 96 | 1010.4 |
| 20260506205047 | 66 | 307 | 0.0 | 2.0 | 0.12 | 1.61 | 1.61 | 96 | 1010.5 |
| 20260506204555 | 67 | 307 | 0.0 | 2.0 | 0.12 | 1.61 | 1.61 | 96 | 1010.7 |
| 20260506204047 | 67 | 233 | 1.0 | 2.0 | 0.12 | 1.61 | 1.61 | 96 | 1010.8 |
| 20260506203547 | 67 | 233 | 0.0 | 2.0 | 0.12 | 1.61 | 1.61 | 96 | 1010.9 |
| 20260506203047 | 67 | 236 | 0.0 | 2.0 | 0.12 | 1.60 | 1.60 | 96 | 1010.9 |
| 20260506202550 | 67 | 236 | 0.0 | 3.0 | 0.05 | 1.53 | 1.53 | 96 | 1011.2 |
| 20260506202049 | 67 | 238 | 1.0 | 3.0 | 0.05 | 1.52 | 1.52 | 96 | 1011.2 |
| 20260506201547 | 67 | 244 | 1.0 | 3.0 | 0.04 | 1.50 | 1.50 | 96 | 1010.9 |
| 20260506201048 | 67 | 244 | 0.0 | 1.0 | 0.05 | 1.50 | 1.50 | 96 | 1010.3 |
| 20260506200549 | 67 | 244 | 0.0 | 2.0 | 0.05 | 1.50 | 1.50 | 96 | 1010.4 |
| 20260506200105 | 68 | 244 | 0.0 | 2.0 | 0.05 | 1.49 | 1.49 | 96 | 1010.8 |
| 20260506195549 | 68 | 234 | 1.0 | 2.0 | 0.06 | 1.49 | 1.49 | 96 | 1010.9 |
| 20260506195045 | 68 | 231 | 0.0 | 2.0 | 0.07 | 1.49 | 1.49 | 96 | 1010.7 |
| 20260506194550 | 68 | 237 | 0.0 | 2.0 | 0.09 | 1.49 | 1.49 | 96 | 1011.0 |
| 20260506194044 | 68 | 259 | 0.0 | 1.0 | 0.11 | 1.49 | 1.49 | 96 | 1010.9 |
| 20260506193545 | 67 | 261 | 0.0 | 1.0 | 0.12 | 1.49 | 1.49 | 96 | 1011.3 |
| 20260506193045 | 67 | 261 | 0.0 | 1.0 | 0.15 | 1.48 | 1.48 | 96 | 1011.4 |
| 20260506192544 | 67 | 261 | 0.0 | 1.0 | 0.20 | 1.48 | 1.48 | 96 | 1011.5 |
| 20260506192048 | 67 | 261 | 0.0 | 1.0 | 0.21 | 1.47 | 1.47 | 95 | 1011.2 |
| 20260506191545 | 67 | 261 | 0.0 | 1.0 | 0.21 | 1.46 | 1.46 | 95 | 1011.0 |
| 20260506191045 | 67 | 261 | 0.0 | 1.0 | 0.22 | 1.45 | 1.45 | 95 | 1010.8 |
| 20260506190545 | 67 | 277 | 0.0 | 1.0 | 0.22 | 1.45 | 1.45 | 95 | 1010.9 |
| 20260506190045 | 67 | 277 | 0.0 | 2.0 | 0.22 | 1.44 | 1.44 | 95 | 1011.0 |
| 20260506185544 | 67 | 101 | 0.0 | 3.0 | 0.21 | 1.43 | 1.43 | 95 | 1010.8 |
| 20260506185047 | 67 | 86 | 0.0 | 2.0 | 0.20 | 1.42 | 1.42 | 94 | 1011.0 |
| 20260506184544 | 67 | 86 | 1.0 | 2.0 | 0.18 | 1.40 | 1.40 | 94 | 1011.4 |
| 20260506184043 | 68 | 96 | 0.0 | 2.0 | 0.16 | 1.38 | 1.38 | 94 | 1012.0 |
| 20260506183543 | 68 | 96 | 1.0 | 3.0 | 0.14 | 1.36 | 1.36 | 94 | 1011.7 |
| 20260506183058 | 68 | 132 | 0.0 | 3.0 | 0.11 | 1.33 | 1.33 | 94 | 1011.8 |
| 20260506182543 | 68 | 109 | 0.0 | 2.0 | 0.05 | 1.27 | 1.27 | 94 | 1012.1 |
| 20260506182043 | 68 | 253 | 0.0 | 2.0 | 0.03 | 1.25 | 1.25 | 93 | 1012.5 |
| 20260506181549 | 68 | 253 | 0.0 | 2.0 | 0.03 | 1.25 | 1.25 | 93 | 1012.3 |
| 20260506181043 | 68 | 253 | 0.0 | 2.0 | 0.01 | 1.23 | 1.23 | 92 | 1012.2 |
| 20260506180545 | 68 | 253 | 1.0 | 3.0 | 0.01 | 1.23 | 1.23 | 92 | 1012.3 |
| 20260506180042 | 69 | 253 | 1.0 | 3.0 | 0.00 | 1.22 | 1.22 | 92 | 1012.2 |
| 20260506175544 | 69 | 281 | 0.0 | 3.0 | 0.00 | 1.22 | 1.22 | 92 | 1012.2 |
| 20260506175041 | 69 | 257 | 0.0 | 2.0 | 0.00 | 1.22 | 1.22 | 91 | 1012.1 |
| 20260506174541 | 69 | 257 | 0.0 | 2.0 | 0.00 | 1.22 | 1.22 | 91 | 1012.1 |
| 20260506174042 | 69 | 318 | 0.0 | 3.0 | 0.00 | 1.22 | 1.22 | 91 | 1012.1 |
| 20260506173541 | 69 | 223 | 1.0 | 3.0 | 0.00 | 1.22 | 1.22 | 91 | 1012.0 |
| 20260506173052 | 69 | 165 | 0.0 | 2.0 | 0.00 | 1.22 | 1.22 | 91 | 1011.5 |
| 20260506172543 | 69 | 233 | 0.0 | 3.0 | 0.00 | 1.22 | 1.22 | 91 | 1011.7 |
| 20260506172042 | 69 | 233 | 1.0 | 3.0 | 0.00 | 1.22 | 1.22 | 91 | 1011.8 |
| 20260506171545 | 69 | 223 | 0.0 | 3.0 | 0.00 | 1.22 | 1.22 | 91 | 1011.9 |
| 20260506171041 | 69 | 258 | 0.0 | 5.0 | 0.00 | 1.22 | 1.22 | 90 | 1011.7 |
| 20260506170541 | 69 | 55 | 0.0 | 5.0 | 0.00 | 1.22 | 1.22 | 91 | 1011.5 |
| 20260506170046 | 69 | 227 | 0.0 | 3.0 | 0.00 | 1.22 | 1.22 | 91 | 1011.4 |
| 20260506165540 | 70 | 239 | 1.0 | 3.0 | 0.00 | 1.22 | 1.22 | 92 | 1011.5 |
| 20260506165040 | 70 | 189 | 0.0 | 5.0 | 0.00 | 1.22 | 1.22 | 91 | 1011.6 |
| 20260506164547 | 70 | 161 | 0.0 | 5.0 | 0.00 | 1.22 | 1.22 | 93 | 1011.3 |